FW7611 Weather Reports


Display with metric or nautical units.
time (UTC)temp
F
wind
direction
speed
MPH
gust
MPH
rain 1hr
in
rain 24hr
in
rain mn
in
humidity
%
barometer
mb
20260904073044 75 0 0.0 0.0 0.00 0.00 0.00 90 1017.8
20260904071549 75 234 0.0 1.0 0.00 0.00 0.00 91 1018.0
20260904070048 74 0 0.0 0.0 0.00 0.00 0.00 91 1018.1
20260904064555 75 0 0.0 0.0 0.00 0.00 0.00 91 1018.4
20260904063101 75 0 0.0 0.0 0.00 0.00 0.00 91 1018.7
20260904061549 75 0 0.0 0.0 0.00 0.00 0.00 90 1018.9
20260904060047 75 0 0.0 0.0 0.00 0.00 0.00 89 1018.9
20260904054549 75 0 0.0 0.0 0.00 0.00 0.00 88 1019.3
20260904053045 76 0 0.0 0.0 0.00 0.00 0.00 88 1019.3
20260904051601 76 0 0.0 0.0 0.00 0.00 0.00 87 1019.3
20260904050047 77 0 0.0 0.0 0.00 0.00 0.00 86 1019.4
20260904044554 77 0 0.0 0.0 0.00 0.00 0.00 85 1019.3
20260904043042 77 0 0.0 0.0 0.00 0.00 0.00 84 1019.5
20260904041544 78 0 0.0 0.0 0.00 0.00 0.00 84 1019.2
20260904040045 78 0 0.0 0.0 0.00 0.00 0.00 83 1019.1
20260904034546 79 0 0.0 0.0 0.00 0.00 0.00 82 1019.2
20260904033044 79 0 0.0 0.0 0.00 0.00 0.00 82 1019.1
20260904031541 79 0 0.0 0.0 0.00 0.00 0.00 81 1019.0
20260904030042 79 0 0.0 0.0 0.00 0.00 0.00 80 1019.2
20260904024546 79 0 0.0 0.0 0.00 0.00 0.00 81 1019.1
20260904023042 80 0 0.0 0.0 0.00 0.00 0.00 80 1019.0
20260904021541 80 0 0.0 2.0 0.00 0.00 0.00 80 1019.2
20260904020049 80 0 0.0 0.0 0.00 0.00 0.00 80 1019.2
20260904014602 81 0 0.0 0.0 0.00 0.00 0.00 77 1019.3
20260904013040 81 0 0.0 0.0 0.00 0.00 0.00 77 1019.1
20260904011549 81 0 0.0 0.0 0.00 0.00 0.00 78 1018.8
20260904004543 82 0 0.0 0.0 0.00 0.00 0.00 75 1018.4
20260904003051 83 0 0.0 0.0 0.00 0.00 0.00 71 1018.3
20260904001548 84 0 0.0 0.0 0.00 0.00 0.00 70 1018.1
20260904000054 84 0 0.0 1.0 0.00 0.00 0.00 68 1017.7
20260903234553 85 0 0.0 2.0 0.00 0.00 0.00 68 1017.7
20260903233059 87 0 0.0 2.0 0.00 0.00 0.00 66 1017.7
20260903231550 88 0 0.0 0.0 0.00 0.00 0.00 62 1017.6
20260903230047 90 0 0.0 2.0 0.00 0.00 0.00 57 1017.6
20260903224542 91 283 0.0 2.0 0.00 0.00 0.00 55 1017.5
20260903223052 92 320 0.0 2.0 0.00 0.00 0.00 53 1017.6
20260903221547 93 0 0.0 2.0 0.00 0.00 0.00 52 1017.7
20260903220052 93 248 1.0 2.0 0.00 0.00 0.00 49 1017.6
20260903214544 94 250 1.0 5.0 0.00 0.00 0.00 50 1017.7
20260903213055 94 248 1.0 3.0 0.00 0.00 0.00 47 1017.7
20260903211547 94 246 1.0 6.0 0.00 0.00 0.00 48 1017.7
20260903210104 94 0 0.0 2.0 0.00 0.00 0.00 47 1017.9
20260903204602 95 245 1.0 7.0 0.00 0.00 0.00 48 1018.0
20260903203053 94 321 0.0 2.0 0.00 0.00 0.00 48 1018.1
20260903201551 93 316 0.0 2.0 0.00 0.00 0.00 54 1018.3
20260903200053 94 277 0.0 4.0 0.00 0.00 0.00 50 1018.5
20260903194545 94 202 0.0 1.0 0.00 0.00 0.00 50 1018.5
20260903193053 95 259 1.0 5.0 0.00 0.00 0.00 49 1018.8
20260903191548 95 163 1.0 5.0 0.00 0.00 0.00 50 1018.9
20260903190047 95 227 1.0 6.0 0.00 0.00 0.00 49 1019.0
20260903184551 96 198 2.0 5.0 0.00 0.00 0.00 47 1019.1
20260903183048 96 186 2.0 5.0 0.00 0.00 0.00 45 1019.3
20260903181546 98 141 1.0 4.0 0.00 0.00 0.00 45 1019.3
20260903180049 96 231 1.0 3.0 0.00 0.00 0.00 48 1019.4
20260903174544 97 37 0.0 4.0 0.00 0.00 0.00 46 1019.6
20260903173053 96 0 0.0 4.0 0.00 0.00 0.00 48 1019.6
20260903171554 92 171 1.0 3.0 0.00 0.00 0.00 51 1019.8
20260903170048 93 140 1.0 3.0 0.00 0.00 0.00 51 1020.1
20260903164547 96 178 3.0 6.0 0.00 0.00 0.00 49 1020.2
20260903163049 94 0 0.0 4.0 0.00 0.00 0.00 54 1020.3
20260903161548 94 168 0.0 3.0 0.00 0.00 0.00 54 1020.5
20260903160101 93 0 0.0 2.0 0.00 0.00 0.00 55 1020.5
20260903154543 92 315 1.0 2.0 0.00 0.00 0.00 56 1020.6
20260903153049 91 284 1.0 2.0 0.00 0.00 0.00 57 1020.8
20260903151548 90 15 0.0 3.0 0.00 0.00 0.00 61 1020.9
20260903150058 90 43 1.0 2.0 0.00 0.00 0.00 60 1020.9
20260903144544 89 300 0.0 2.0 0.00 0.00 0.00 63 1020.9
20260903143051 87 272 0.0 3.0 0.00 0.00 0.00 64 1020.7
20260903141547 87 115 0.0 2.0 0.00 0.00 0.00 67 1020.8
20260903140053 85 0 0.0 2.0 0.00 0.00 0.00 70 1020.8
20260903134555 83 111 0.0 2.0 0.00 0.00 0.00 73 1020.8
20260903133059 81 0 0.0 0.0 0.00 0.00 0.00 77 1020.8
20260903131548 80 0 0.0 0.0 0.00 0.00 0.00 79 1020.9
20260903130047 78 0 0.0 0.0 0.00 0.00 0.00 82 1020.9
20260903124551 77 352 0.0 2.0 0.00 0.00 0.00 86 1020.8
20260903123047 75 0 0.0 1.0 0.00 0.00 0.00 88 1020.8
20260903121547 74 0 0.0 0.0 0.00 0.00 0.00 90 1020.6
20260903120104 73 0 0.0 2.0 0.00 0.00 0.00 92 1020.7
20260903114540 72 0 0.0 0.0 0.00 0.00 0.00 93 1020.5
20260903113048 72 0 0.0 0.0 0.00 0.00 0.00 93 1020.3
20260903111546 72 0 0.0 0.0 0.00 0.00 0.00 93 1019.9
20260903110052 72 0 0.0 0.0 0.00 0.00 0.00 92 1020.0
20260903104551 72 0 0.0 0.0 0.00 0.00 0.00 92 1020.0
20260903103048 73 0 0.0 0.0 0.00 0.00 0.00 92 1019.9
20260903101547 72 0 0.0 0.0 0.00 0.00 0.00 92 1020.0
20260903100051 73 0 0.0 0.0 0.00 0.00 0.00 92 1020.0
20260903094559 73 0 0.0 0.0 0.00 0.00 0.00 91 1020.0
20260903093116 73 0 0.0 0.0 0.00 0.00 0.00 91 1019.8
20260903091543 74 0 0.0 0.0 0.00 0.00 0.00 90 1019.8
20260903090042 74 0 0.0 0.0 0.00 0.00 0.00 91 1019.7
20260903084547 73 0 0.0 0.0 0.00 0.00 0.00 92 1019.7
20260903083047 73 0 0.0 0.0 0.00 0.00 0.00 92 1019.5
20260903081548 73 0 0.0 0.0 0.00 0.00 0.00 92 1019.5
20260903080053 73 0 0.0 0.0 0.00 0.00 0.00 92 1019.7
20260903074601 73 0 0.0 0.0 0.00 0.00 0.00 92 1019.6